[TLELIST] Archives

 

[TLELIST] Current TLEs

February 10th 2025 PDT

HST 1 20580U 90037B 25041.09549304 .00009971 00000-0 40396-3 0 9991 2 20580 28.4664 185.0549 0002944 112.7233 247.3672 15.22948294713533 ISS (ZARYA) 1 25544U 98067A 25040.99619567 .00015874 00000-0 28582-3 0 9996 2 25544 51.6376 216.9984 0003534 296.8239 206.0724 15.49970842495438 CXO 1 25867U 99040B 25042.50519223 .00000788 00000-0 00000+0 0 9992 2 25867 46.6977 136.1984 8606811 307.0088 0.3565 0.37802703 26622 ...Continue Reading

[TLELIST] Current TLEs

February 9th 2025 PDT

HST 1 20580U 90037B 25039.71933748 .00009365 00000-0 37919-3 0 9990 2 20580 28.4660 194.3498 0002962 99.1209 260.9720 15.22925076713062 ISS (ZARYA) 1 25544U 98067A 25039.96162986 .00016131 00000-0 29064-3 0 9992 2 25544 51.6374 222.1245 0003546 290.1977 196.1848 15.49938732495274 CXO 1 25867U 99040B 25042.50519223 .00000788 00000-0 00000+0 0 9992 2 25867 46.6977 136.1984 8606811 307.0088 0.3565 0.37802703 26622 ...Continue Reading

[TLELIST] Current TLEs

February 9th 2025 PDT

HST 1 20580U 90037B 25039.71933748 .00009365 00000-0 37919-3 0 9990 2 20580 28.4660 194.3498 0002962 99.1209 260.9720 15.22925076713062 ISS (ZARYA) 1 25544U 98067A 25039.96162986 .00016131 00000-0 29064-3 0 9992 2 25544 51.6374 222.1245 0003546 290.1977 196.1848 15.49938732495274 CXO 1 25867U 99040B 25042.50519223 .00000788 00000-0 00000+0 0 9992 2 25867 46.6977 136.1984 8606811 307.0088 0.3565 0.37802703 26622 ...Continue Reading

[TLELIST] Current TLEs

February 9th 2025 PDT

HST 1 20580U 90037B 25039.71933748 .00009365 00000-0 37919-3 0 9990 2 20580 28.4660 194.3498 0002962 99.1209 260.9720 15.22925076713062 ISS (ZARYA) 1 25544U 98067A 25039.96162986 .00016131 00000-0 29064-3 0 9992 2 25544 51.6374 222.1245 0003546 290.1977 196.1848 15.49938732495274 CXO 1 25867U 99040B 25042.50519223 .00000788 00000-0 00000+0 0 9992 2 25867 46.6977 136.1984 8606811 307.0088 0.3565 0.37802703 26622 ...Continue Reading

[TLELIST] Current TLEs

February 8th 2025 PDT

HST 1 20580U 90037B 25038.86742152 .00008823 00000-0 35696-3 0 9990 2 20580 28.4660 200.1040 0002946 90.6775 269.4157 15.22909458712936 ISS (ZARYA) 1 25544U 98067A 25038.99640861 .00015732 00000-0 28399-3 0 9993 2 25544 51.6375 226.9065 0003507 286.8821 210.2731 15.49905550495129 CXO 1 25867U 99040B 25037.21592970 .00000716 00000-0 00000-0 0 9996 2 25867 46.5701 136.5229 8614898 306.8174 0.4690 0.37805710 15459 ...Continue Reading

[TLELIST] Current TLEs

February 8th 2025 PDT

HST 1 20580U 90037B 25038.86742152 .00008823 00000-0 35696-3 0 9990 2 20580 28.4660 200.1040 0002946 90.6775 269.4157 15.22909458712936 ISS (ZARYA) 1 25544U 98067A 25038.99640861 .00015732 00000-0 28399-3 0 9993 2 25544 51.6375 226.9065 0003507 286.8821 210.2731 15.49905550495129 CXO 1 25867U 99040B 25037.21592970 .00000716 00000-0 00000-0 0 9996 2 25867 46.5701 136.5229 8614898 306.8174 0.4690 0.37805710 15459 ...Continue Reading

[TLELIST] Current TLEs

February 7th 2025 PDT

HST 1 20580U 90037B 25037.88443145 .00009071 00000-0 36740-3 0 9998 2 20580 28.4660 206.7437 0003007 80.2660 279.8274 15.22892614712788 ISS (ZARYA) 1 25544U 98067A 25037.96095632 .00015139 00000-0 27395-3 0 9995 2 25544 51.6373 232.0378 0003474 282.9273 192.9924 15.49869763494969 CXO 1 25867U 99040B 25037.21592970 .00000716 00000-0 00000-0 0 9996 2 25867 46.5701 136.5229 8614898 306.8174 0.4690 0.37805710 15459 ...Continue Reading

[TLELIST] Current TLEs

February 6th 2025 PDT

HST 1 20580U 90037B 25036.90142931 .00010273 00000-0 41732-3 0 9992 2 20580 28.4662 213.3824 0003027 71.3788 288.7134 15.22878163712639 ISS (ZARYA) 1 25544U 98067A 25036.90853096 .00016894 00000-0 30505-3 0 9990 2 25544 51.6352 237.2553 0003739 277.2779 82.7785 15.49838227494805 CXO 1 25867U 99040B 25037.21592970 .00000716 00000-0 00000-0 0 9996 2 25867 46.5701 136.5229 8614898 306.8174 0.4690 0.37805710 15459 ...Continue Reading

[TLELIST] [TLELIST] Current TLEs

February 6th 2025 PDT

HST 1 20580U 90037B 25036.90142931 .00010273 00000-0 41732-3 0 9992 2 20580 28.4662 213.3824 0003027 71.3788 288.7134 15.22878163712639 ISS (ZARYA) 1 25544U 98067A 25036.90853096 .00016894 00000-0 30505-3 0 9990 2 25544 51.6352 237.2553 0003739 277.2779 82.7785 15.49838227494805 CXO 1 25867U 99040B 25037.21592970 .00000716 00000-0 00000-0 0 9996 2 25867 46.5701 136.5229 8614898 306.8174 0.4690 0.37805710 15459 ...Continue Reading

[TLELIST] Current TLEs

February 5th 2025 PDT

HST 1 20580U 90037B 25036.18055468 .00009288 00000-0 37671-3 0 9991 2 20580 28.4665 218.2510 0002946 65.3833 294.7067 15.22863392712787 ISS (ZARYA) 1 25544U 98067A 25036.03454442 .00016993 00000-0 30705-3 0 9998 2 25544 51.6377 241.5810 0003477 275.1739 245.3794 15.49813608494665 CXO 1 25867U 99040B 25037.21592970 .00000716 00000-0 00000-0 0 9996 2 25867 46.5701 136.5229 8614898 306.8174 0.4690 0.37805710 15459 ...Continue Reading
  • This mailing list is a public mailing list - anyone may join or leave, at any time.
  • This mailing list is announce-only.

International Space Station (ISS) / Hubble Space Telescope (HST) / Chandra X-Ray Observatory Orbital Data via EMAIL

Privacy Policy:

Private list